Location: Adpar
(53.0333°N, 4.4667°W)
Time: 01:33:59
(UTC+00:00)

Daily predictions for brighter satellites

Satellite Brightness Start Highest point End
(mag) Time Altitude Azimuth Time Altitude Azimuth Time Altitude Azimuth
Cosmos 1943 Rocket 4.3 03:30:59 22° ENE 03:30:59 22° ENE 03:33:48 10° NE
USA 215 4.1 03:39:37 10° E 03:44:01 45° E 03:44:01 45° E
Cosmos 2278 Rocket 4.1 04:05:51 21° NNE 04:05:51 21° NNE 04:07:43 10° NNE
Meteor 2-3 Rocket 4.3 04:27:08 53° ESE 04:27:26 54° E 04:33:02 10° NNE
CENTAUR R/B 2.7 04:30:49 67° SE 04:30:59 67° SE 04:38:14 10° NE
Cosmos 1634 Rocket 4.3 04:30:38 32° N 04:33:40 64° ENE 04:39:50 10° SSE
Cosmos 2297 Rocket 4.2 04:40:20 17° N 04:42:07 19° NNE 04:46:05 10° ENE
Cosmos 2344 3.4 04:44:25 66° SW 04:45:38 89° SE 04:53:49 10° NE
NOSS 3-2 (A) 3.3 04:48:00 85° NE 04:48:00 85° NE 04:54:38 10° NE
Tsikada Rocket 4.0 04:46:12 30° S 04:49:30 80° E 04:55:51 10° NNE
Cosmos 2369 Rocket 3.1 04:47:36 20° S 04:51:11 45° ESE 04:56:31 10° NE
NOSS 3-2 (C) 3.5 04:55:42 56° S 04:56:49 69° SE 05:03:27 10° NE
H-2A R/B 4.4 04:54:03 10° NNE 04:57:27 32° E 05:00:51 10° SSE
Envisat 4.1 04:54:55 10° NNE 04:59:45 42° E 05:04:34 10° SSE
Landsat 5 4.4 04:59:16 10° SE 05:03:38 51° ENE 05:04:30 44° NNE
Cosmos 2263 Rocket 4.4 05:03:42 12° N 05:04:36 12° N 05:06:56 10° NNE
Cosmos 968 Rocket 3.4 05:06:20 75° SSE 05:06:42 80° ESE 05:11:51 10° NNE
Cosmos 2098 Rocket 3.8 05:07:15 10° S 05:11:24 57° E 05:16:41 10° NNE
Cosmos 1943 Rocket 2.0 05:12:33 72° NW 05:12:33 72° NW 05:18:13 10° NNE
Cosmos 1862 4.4 05:09:06 10° SSE 05:12:51 43° E 05:16:37 10° NNE
SKYMED 2 3.7 05:09:28 10° SSE 05:13:22 69° SE 05:13:22 69° SE
CZ-2C R/B 2.6 05:08:36 10° SSE 05:14:04 82° ENE 05:16:42 32° N
Cosmos 2227 Rocket 4.1 05:15:02 15° N 05:18:04 22° NNE 05:22:21 10° E
Meteor 2-13 Rocket 4.3 05:15:40 10° S 05:21:47 90° W 05:27:54 10° NNE
FALCON 9 DEB 4.3 05:25:10 41° ESE 05:25:10 41° ESE 05:27:36 10° E
USA 238 DEB 3.5 05:22:25 43° SW 05:24:50 83° NW 05:31:53 10° NE
USA 238 3.5 05:22:29 42° SW 05:24:57 83° NW 05:31:59 10° NE
SJ-12 4.2 05:21:31 10° NNE 05:25:39 66° ESE 05:29:46 10° S
Cosmos 1151 Rocket 3.6 05:28:46 46° SSW 05:28:46 46° SSW 05:31:56 10° S
USA 215 3.2 05:22:43 10° SE 05:29:12 69° SSW 05:31:22 44° W
H-2A R/B 3.7 05:26:05 10° SE 05:29:57 33° ENE 05:33:55 10° N
DNEPR-1 R/B 4.2 05:34:59 46° SW 05:34:59 46° SW 05:40:01 10° SSE
MOS 1-B Rocket 3.9 05:29:48 10° S 05:35:46 54° W 05:37:28 41° NW
Okean 3 Rocket 3.8 05:31:35 10° S 05:36:06 72° E 05:40:40 10° NNE
FALCON 9 DEB 4.2 05:38:56 36° E 05:38:56 36° E 05:40:48 10° E
Cosmos 2297 3.9 05:38:52 47° WNW 05:39:40 51° NW 05:45:16 10° NNE
CZ-4B R/B 4.1 05:39:03 10° ESE 05:41:20 18° ENE 05:43:36 10° NNE
SL-19 R/B 4.4 05:36:31 10° S 05:41:53 47° WSW 05:42:46 43° WNW
Cosmos 1766 Rocket 3.4 05:38:04 10° S 05:42:24 89° ESE 05:46:46 10° NNE
Lacrosse 4 Rocket 3.6 05:42:12 15° N 05:44:00 18° NNE 05:47:05 10° ENE
SL-24 R/B 4.4 05:39:58 10° N 05:44:37 50° WNW 05:44:37 50° WNW
Meteor 1-27 Rocket 4.0 05:40:07 10° N 05:45:44 68° ENE 05:51:27 10° SSE
Cosmos 1328 Rocket 3.4 05:45:55 55° NW 05:46:37 64° W 05:50:55 10° S
Cosmos 2278 Rocket 3.6 05:47:42 21° NNW 05:47:42 21° NNW 05:51:32 10° NNE
CZ-2C R/B 4.0 05:51:23 10° NNE 05:56:03 46° E 06:00:54 10° S
Meteor 2-6 Rocket 4.2 05:55:49 24° NNW 05:58:48 50° W 06:03:58 10° S
Cosmos 1538 Rocket 4.4 05:55:33 16° NNW 05:59:46 64° ENE 06:04:56 10° SE
ATLAS 5 CENTAUR R/B 3.8 05:57:02 10° S 06:00:10 23° ESE 06:03:36 10° ENE
Cosmos 2279 Rocket 4.0 05:55:08 10° NNW 06:01:08 54° W 06:07:07 10° SSW
COSMO-SKYMED 1 3.0 05:57:55 10° SSW 06:01:58 39° W 06:01:58 39° W
Cosmos 1340 Rocket 4.3 05:59:15 10° SSE 06:02:56 38° E 06:06:40 10° NNE
Cosmos 1607 4.1 05:59:11 23° NW 06:03:16 69° NE 06:09:26 10° SE
CZ-4C R/B 3.4 06:01:49 10° S 06:04:09 40° SW 06:04:09 40° SW
Meteor 2-15 Rocket 4.3 06:00:34 10° NNW 06:06:40 84° W 06:12:45 10° S
COSMOS 2487 2.8 06:06:46 26° N 06:08:26 58° ENE 06:11:44 10° SE
Cosmos 1515 4.4 06:05:32 10° N 06:09:17 54° ENE 06:13:00 10° SSE
Meteor 2-3 Rocket 4.4 06:09:32 28° W 06:10:58 32° WNW 06:16:05 10° N
Cosmos 1939 Rocket 4.2 06:11:08 10° NNE 06:14:54 41° E 06:18:36 10° S
Nadezhda 4 Rocket 4.1 06:09:13 10° S 06:15:22 80° E 06:21:40 10° NNE
Cosmos 1408 Rocket 3.4 06:11:30 10° S 06:15:48 86° W 06:20:08 10° N
Cosmos 1503 Rocket 3.9 06:10:55 10° SSW 06:16:13 79° WNW 06:21:37 10° NNE
Cosmos 2228 Rocket 3.6 06:13:25 10° N 06:17:54 62° ENE 06:22:23 10° SSE
USA 32 4.2 06:14:42 10° N 06:19:58 74° E 06:25:13 10° SSE
Cosmos 2084 Rocket 4.5 06:20:11 24° NNW 06:20:45 25° NNW 06:24:04 10° NE
CENTAUR R/B 3.0 06:18:01 23° W 06:22:04 50° NNW 06:29:36 10° NE
Meteor 1-10 Rocket 4.4 06:17:26 10° NNW 06:22:39 45° W 06:27:53 10° SSW
Cosmos 1486 Rocket 4.2 06:18:28 10° SW 06:23:35 47° NW 06:28:41 10° NNE
YAOGAN 6 4.2 06:21:10 10° N 06:22:47 20° NNW 06:22:47 20° NNW
Cosmos 1743 Rocket 3.9 06:20:28 10° S 06:24:49 67° E 06:29:09 10° NNE
Cosmos 1777 Rocket 4.4 06:19:52 10° SSW 06:25:01 65° ESE 06:30:15 10° NNE
CZ-4B R/B 4.3 06:21:37 10° N 06:25:52 46° WNW 06:30:09 10° SW
Cosmos 773 Rocket 4.3 06:22:52 21° NW 06:26:05 45° WSW 06:30:59 10° S
Cosmos 2263 4.2 06:20:28 10° SW 06:26:07 61° NW 06:31:52 10° NNE
Cosmos 2297 Rocket 2.8 06:22:08 11° NNW 06:27:29 54° NE 06:33:02 10° SE
Meteor 1-31 Rocket 3.1 06:24:06 10° N 06:27:46 40° WNW 06:31:26 10° SW
Cosmos 1515 Rocket 3.8 06:26:04 15° NNW 06:29:22 43° W 06:33:29 10° SSW
H-2A R/B 3.6 06:28:19 10° N 06:31:29 27° WNW 06:32:27 24° W
Cosmos 1092 Rocket 4.5 06:25:45 10° S 06:31:56 66° E 06:38:13 10° NNE
DMSP B5D2-2 4.2 06:27:24 10° S 06:32:31 55° W 06:37:39 10° NNW
SL-27 R/B 3.3 06:32:22 27° WNW 06:33:14 31° WSW 06:36:25 10° SSW
Okean 1 3.9 06:29:29 10° N 06:33:24 57° ENE 06:37:17 10° SSE
SMAP 3.8 06:30:15 10° NNE 06:34:51 56° E 06:39:26 10° S
Cosmos 2369 Rocket 2.5 06:29:58 10° WSW 06:35:17 43° NW 06:40:40 10° NNE
OPS 6432 4.0 06:34:45 27° NW 06:36:11 83° NE 06:39:24 10° SE
SJ 16-02 1.5 06:32:32 10° SSW 06:36:54 75° ESE 06:41:18 10° NNE
Envisat 3.5 06:34:07 10° N 06:38:44 36° WNW 06:43:20 10° SW
NOSS 3-2 (A) 4.2 06:35:24 19° WNW 06:39:28 41° NNW 06:46:13 10° NE
SJ-7 4.5 06:38:53 10° N 06:43:03 58° WNW 06:47:08 10° SSW
FengYun 1-2 T 4.4 06:40:55 10° NNE 06:46:28 78° ESE 06:51:56 10° SSW
Cosmos 1656 Rocket 3.9 06:41:19 10° WSW 06:46:31 45° NW 06:51:47 10° NNE
FALCON 9 DEB 2.6 06:45:05 24° W 06:46:40 89° SSW 06:49:34 10° E
NOSS 3-2 (C) 3.9 06:43:11 14° W 06:48:09 46° NNW 06:54:58 10° NE
Meteor 2-19 Rocket 4.4 06:42:25 10° SSW 06:48:23 60° WNW 06:54:24 10° N
Cosmos 1862 4.4 06:46:17 10° WSW 06:49:24 22° WNW 06:52:33 10° NNW
FALCON 9 DEB 2.6 06:48:48 22° W 06:50:29 82° S 06:53:21 10° ESE
Cosmos 2263 Rocket 4.0 06:46:24 10° NNW 06:50:46 23° NNE 06:55:08 10° E
ATLAS 3B R/B 3.3 06:44:44 10° SSW 06:51:10 59° SE 06:57:56 10° NE
FALCON 9 DEB 2.6 06:49:33 22° W 06:51:15 78° SSW 06:54:06 10° ESE
Cosmos 158 Rocket 4.1 06:47:09 11° NNW 06:52:02 57° WSW 06:57:09 10° S
Cosmos 1500 Rocket 3.6 06:48:31 10° SSW 06:52:58 65° WNW 06:57:27 10° N
Cosmos 2098 Rocket 4.4 06:49:22 10° WSW 06:53:00 23° WNW 06:57:20 10° N
CZ-2C R/B 3.9 06:51:09 10° SW 06:55:01 19° W 06:58:12 12° NW
Meteor 2-4 Rocket 4.3 06:50:23 10° N 06:56:18 63° ENE 07:02:08 10° SSE
Cosmos 1943 Rocket 3.4 06:54:07 15° WNW 06:57:17 22° NNW 07:01:41 10° NNE
Cosmos 1174 3.5 06:55:36 10° SSW 06:58:33 68° SE 07:01:49 10° NE
FALCON 9 DEB 3.0 06:58:12 15° W 07:00:58 88° N 07:04:23 10° E
Cosmos 2344 4.1 06:54:26 12° W 07:01:02 45° NNW 07:09:40 10° ENE
Cosmos 1707 Rocket 3.7 06:56:50 10° N 07:01:18 81° E 07:05:45 10° SSE
Sich 1 3.2 06:57:07 10° S 07:01:23 78° E 07:05:41 10° NNE
Timation 1 Rocket 4.4 06:55:45 10° NNW 07:01:48 88° ENE 07:07:46 10° SSE
NOAA 12 4.1 06:56:52 10° NNE 07:02:08 69° WNW 07:07:19 10° SSW
CORIOLIS 4.4 06:57:22 10° NNE 07:02:52 78° ESE 07:08:18 10° SSW
Cosmos 2227 Rocket 2.5 06:57:32 10° NNW 07:03:12 67° NE 07:08:49 10° SE
Cosmos 2112 Rocket 4.4 06:58:05 10° NNW 07:03:25 65° ENE 07:08:41 10° SE
CZ-4 R/B 4.3 07:01:54 10° NE 07:04:23 16° E 07:06:50 10° SE
Meteor 1-19 Rocket 4.2 06:59:13 10° NNW 07:04:52 71° W 07:10:18 10° S
Cosmos 1805 Rocket 3.5 07:00:33 10° SSW 07:04:55 80° W 07:09:20 10° N
H-2A R/B 2.7 07:01:55 10° SSW 07:05:52 36° W 07:09:57 10° NNW
Meteor 1-20 Rocket 4.2 07:03:13 10° SSW 07:08:49 77° WNW 07:14:34 10° NNE
Cosmos 1378 4.3 07:05:56 10° N 07:09:31 43° ENE 07:13:05 10° SSE
Alouette 2 Rocket 4.2 07:08:26 10° NNW 07:11:50 28° W 07:14:56 10° SSW
Okean O Rocket 3.4 07:08:09 10° NNE 07:12:17 37° E 07:16:23 10° SSE
Cosmos 1602 3.7 07:08:46 10° SSW 07:12:32 61° WNW 07:16:21 10° N
CZ-4B DEB 4.5 07:07:28 10° NNE 07:12:58 76° ESE 07:18:25 10° SSW
CZ-4B R/B 3.1 07:09:44 10° N 07:13:02 35° WNW 07:16:19 10° SW
USA 215 4.4 07:07:45 10° S 07:13:02 26° SW 07:18:22 10° WNW
FALCON 9 DEB 2.7 07:10:27 12° W 07:13:03 80° S 07:15:56 10° ESE
CZ-4B R/B 1.8 07:09:55 10° S 07:13:05 42° W 07:16:13 10° NNW
PSLV R/B 3.9 07:10:08 10° NNE 07:14:05 86° ESE 07:18:05 10° SSW
Cosmos 1862 Rocket 3.9 07:09:52 10° N 07:14:12 67° ENE 07:18:31 10° SSE
USA 238 DEB 4.3 07:10:21 10° W 07:16:40 40° NNW 07:23:23 10° NE
USA 238 4.3 07:10:27 10° W 07:16:46 41° NNW 07:23:29 10° NE
Timation 2 Rocket 4.5 07:10:37 10° NNW 07:17:16 63° NE 07:23:35 10° SE
ARGOS 4.4 07:13:47 10° NNE 07:18:58 46° E 07:24:06 10° S
ADEOS 4.2 07:15:15 10° N 07:19:55 33° WNW 07:24:33 10° WSW
Cosmos 2026 Rocket 4.0 07:15:13 10° SSW 07:21:32 73° WNW 07:27:49 10° N
Meteor 2-14 Rocket 4.5 07:16:47 10° SSW 07:22:56 79° WNW 07:29:08 10° N
Lacrosse 4 Rocket 2.1 07:19:11 10° NNW 07:23:35 56° NE 07:28:01 10° SE
Cosmos 1553 Rocket 3.9 07:20:40 10° NNW 07:26:46 77° W 07:32:50 10° S
S3M 4.3 07:21:35 10° N 07:28:00 78° ENE 07:34:25 10° SSE
Cosmos 2278 Rocket 4.1 07:31:17 10° NNW 07:33:42 13° N 07:36:07 10° NNE
CZ-2C R/B 3.6 07:31:36 10° N 07:35:50 31° WNW 07:40:12 10° WSW
Cosmos 2219 3.3 07:31:03 10° NNW 07:36:44 78° WSW 07:42:24 10° SSE
